Location: Miramichi City (Newcastle)
(46.9830°N, 65.5670°W)
Time: 06:10:56
(UTC-03:00)

Iridium 12 - Visible Passes

Search period start: 24 May 2015 00:00
Search period end: 03 June 2015 00:00
Orbit: 776 x 779 km, 86.4° (Epoch: 23 May)

Date Brightness Start Highest point End Pass type
(mag) Time Alt. Az. Time Alt. Az. Time Alt. Az.
25 May 7.7 04:42:44 10° SE 04:47:01 27° E 04:51:25 10° NNE visible
26 May 8.2 04:10:47 10° ESE 04:13:46 16° ENE 04:16:58 10° NE visible
28 May 7.1 04:42:16 10° SSE 04:47:01 37° E 04:51:50 10° NNE visible
29 May 7.9 04:09:50 10° SE 04:13:42 22° E 04:17:43 10° NNE visible
30 May 8.3 03:38:24 10° E 03:40:29 13° ENE 03:42:51 10° NE visible
31 May 6.4 04:42:01 10° SSE 04:47:02 52° E 04:52:08 10° NNE visible
01 Jun 7.3 04:09:13 10° SE 04:13:40 30° E 04:18:14 10° NNE visible
02 Jun 8.1 03:37:04 10° ESE 03:40:24 18° ENE 03:43:55 10° NE visible
